Simultaneous Nadir Overpasses (SNOs) Predictions

Prediction of SNOs between METOP-B and TERRA Satellite Orbit:

Table of predicted SNOs for the next 14.0 days since TLE Epoch: 3/4/2023
Index Date (METOP-B) Time (METOP-B) Lat,Lon (METOP-B) SZA (METOP-B ) Date (TERRA) Time (TERRA) Lat,Lon (TERRA) SZA (TERRA ) Distance(km) Time Diff (sec)
1 03/06/2023 12:18:24 -80.90,-150.22 92.16 03/06/2023 12:19:20 -80.91,-150.09 92.12 2.43 56
2 03/06/2023 13:09:01 80.96, 18.34 87.99 03/06/2023 13:08:40 80.96, 18.15 87.96 3.27 21
3 03/09/2023 04:30:00 -80.93, -32.66 93.12 03/09/2023 04:30:36 -80.93, -32.67 93.11 0.54 36
4 03/09/2023 05:20:39 80.95, 135.16 86.93 03/09/2023 05:19:57 80.95, 135.19 86.91 0.60 42
5 03/11/2023 20:41:38 -80.93, 84.44 94.15 03/11/2023 20:41:53 -80.93, 84.42 94.15 0.52 15
6 03/11/2023 21:32:16 80.97,-107.39 85.94 03/11/2023 21:31:13 80.97,-107.41 85.92 0.46 63
7 03/14/2023 12:02:36 80.90, 33.65 84.76 03/14/2023 12:03:46 80.90, 33.63 84.79 0.46 70
8 03/14/2023 12:53:16 -80.92,-158.56 95.20 03/14/2023 12:53:09 -80.92,-158.49 95.20 1.22 7
9 03/17/2023 04:14:14 80.89, 150.54 83.70 03/17/2023 04:15:01 80.90, 150.72 83.74 3.26 47



Historial Predications of SNOs between METOP-B and TERRA
